Tracking 21998 objects as of 1-Dec-2020
HD Live streaming from Space Station
objects crossing your sky now

OPS 0856

Track OPS 0856 now!
10-day predictions
OPS 0856 is classified as:


NORAD ID: 2403
Int'l Code: 1966-077A
Perigee: 3,672.4 km
Apogee: 3,713.8 km
Inclination: 90.3 °
Period: 167.5 minutes
Semi major axis: 10064 km
RCS: 10.2681 m2 (large)
Launch date: August 19, 1966
Source: United States (US)
Launch site: AIR FORCE WESTERN TEST RANGE (AFWTR)
aabbcc
Your satellite tracking list
Your tracking list is empty




NASA's NSSDC Master Catalog

Two Line Element Set (TLE):
1  2403U 66077A   20336.45709235 +.00000045 +00000-0 +21552-1 0  9999
2  2403 090.2648 254.1769 0020583 299.4505 060.4293 08.59882177352500
Source of the keplerian elements: AFSPC